Duluth, MN

12:40 AM CDT on April 25, 2017 (GMT -0500)
Duluth International

Weather History for KDLH - December, 2011

Change the Weather History Date:

Saturday, December 24, 2011

  Actual Average Record
Temperature  
Mean Temperature 24 °F 12 °F  
Max Temperature 30 °F 20 °F 47 °F (1881)
Min Temperature 17 °F 4 °F -24 °F (1933)
Degree Days  
Heating Degree Days 41 53  
Month to date heating degree days 1049 1183  
Since 1 July heating degree days 2851 3396  
Cooling Degree Days 0 0  
Month to date cooling degree days 0 0  
Year to date cooling degree days 314 204  
Moisture  
Dew Point 18 °F    
Average Humidity 74    
Maximum Humidity 84    
Minimum Humidity 63    
Precipitation  
Precipitation T in 0.04 in 0.77 in (2009)
Month to date precipitation 0.36 0.95  
Year to date precipitation 25.87 30.70  
Snow  
Snow T in 0.60 in 11.00 in (2009)
Month to date snowfall 5.7 13.3  
Since 1 July snowfall 9.4 29.4  
Snow Depth 3.00 in    
Sea Level Pressure  
Sea Level Pressure 30.00 in    
Wind  
Wind Speed 9 mph (SW)    
Max Wind Speed 16 mph    
Max Gust Speed 22 mph    
Visibility 10 miles    
Events      
T = Trace of Precipitation, MM = Missing Value Source: NWS Daily Summary

Daily Weather History Graph

Daily Weather History Graph

Search for Another Location

Airport or City:

Trip Planner

Search our weather history database for the weather conditions in past years. The results will help you decide how hot, cold, wet, or windy it might be!

Date:

Astronomy

Dec. 24, 2011 Rise Set
Actual Time 7:52 AM CST 4:24 PM CST
Civil Twilight 7:16 AM CST 4:59 PM CST
Nautical Twilight 6:38 AM CST 5:38 PM CST
Astronomical Twilight 6:01 AM CST 6:15 PM CST
Moon 7:40 AM CST (12/24) 4:38 PM CST (12/24)
Length of Visible Light 9h 42m
Length of Day
8h 32m
New Moon, 0% of the Moon is Illuminated
Dec 24
New Moon
Dec 24
New
Jan 1
First Quarter
Jan 9
Full
Jan 16
Last Quarter

Hourly Weather History & Observations

Time (CST) Temp. Windchill Dew Point Humidity Pressure Visibility Wind Dir Wind Speed Gust Speed Precip Events Conditions
12:55 AM 24.1 °F 16.0 °F 18.0 °F 77% 30.14 in 10.0 mi WSW 6.9 mph - 0.00 in   Overcast
1:55 AM 23.0 °F 13.9 °F 17.6 °F 80% 30.06 in 10.0 mi SSW 8.1 mph - N/A   Overcast
2:55 AM 23.0 °F 15.8 °F 17.1 °F 78% 30.13 in 10.0 mi SSW 5.8 mph - N/A   Overcast
3:24 AM 23.0 °F - 17.6 °F 80% 30.05 in 10.0 mi Calm Calm - N/A   Overcast
3:55 AM 23.0 °F 17.0 °F 17.1 °F 78% 30.14 in 10.0 mi SSW 4.6 mph - N/A   Overcast
4:55 AM 21.0 °F 16.2 °F 17.1 °F 85% 30.12 in 10.0 mi South 3.5 mph - N/A   Mostly Cloudy
5:39 AM 19.4 °F 14.3 °F 15.8 °F 86% 30.03 in 10.0 mi South 3.5 mph - N/A   Partly Cloudy
5:55 AM 18.0 °F 9.8 °F 14.0 °F 84% 30.10 in 10.0 mi SSE 5.8 mph - N/A   Scattered Clouds
6:55 AM 17.1 °F 7.6 °F 12.9 °F 84% 30.10 in 10.0 mi SSW 6.9 mph - N/A   Clear
7:55 AM 19.0 °F 9.0 °F 15.1 °F 85% 30.08 in 8.0 mi SW 8.1 mph - N/A   Mostly Cloudy
8:55 AM 18.0 °F 7.7 °F 14.0 °F 84% 30.07 in 8.0 mi SW 8.1 mph - N/A   Scattered Clouds
9:55 AM 19.9 °F 12.1 °F 15.1 °F 81% 30.04 in 10.0 mi SSW 5.8 mph - N/A   Clear
10:55 AM 24.1 °F 12.0 °F 16.0 °F 71% 30.02 in 10.0 mi SSW 13.8 mph - N/A   Clear
11:55 AM 24.1 °F 15.2 °F 17.1 °F 75% 29.99 in 10.0 mi SW 8.1 mph - N/A   Clear
12:55 PM 26.1 °F 17.6 °F 17.1 °F 69% 29.97 in 10.0 mi WSW 8.1 mph - N/A   Clear
1:55 PM 26.1 °F 16.8 °F 18.0 °F 71% 29.96 in 10.0 mi WSW 9.2 mph - N/A   Clear
2:55 PM 28.4 °F 18.0 °F 17.6 °F 64% 29.90 in 10.0 mi WSW 12.7 mph - N/A   Clear
3:55 PM 27.0 °F 19.5 °F 19.0 °F 72% 29.96 in 10.0 mi WSW 6.9 mph - N/A   Clear
4:55 PM 27.0 °F 17.3 °F 19.0 °F 72% 29.96 in 10.0 mi WSW 10.4 mph - N/A   Clear
5:55 PM 28.0 °F 17.0 °F 19.9 °F 72% 29.95 in 10.0 mi WSW 13.8 mph - N/A   Mostly Cloudy
6:55 PM 28.9 °F 19.2 °F 21.0 °F 72% 29.93 in 10.0 mi WSW 11.5 mph - N/A   Overcast
7:55 PM 28.9 °F 19.2 °F 21.0 °F 72% 29.91 in 10.0 mi WSW 11.5 mph - N/A   Partly Cloudy
8:55 PM 28.9 °F 18.6 °F 21.0 °F 72% 29.89 in 10.0 mi West 12.7 mph - N/A   Clear
9:55 PM 28.9 °F 18.2 °F 21.0 °F 72% 29.88 in 10.0 mi West 13.8 mph - N/A   Clear
10:55 PM 28.0 °F 17.5 °F 19.9 °F 72% 29.87 in 10.0 mi West 12.7 mph - N/A   Clear
11:55 PM 30.0 °F 19.5 °F 19.9 °F 66% 29.86 in 10.0 mi West 13.8 mph - N/A   Mostly Cloudy